TimeMST,TemperatureF,Dew PointF,Humidity,Sea Level PressureIn,VisibilityMPH,Wind Direction,Wind SpeedMPH,Gust SpeedMPH,PrecipitationIn,Events,Conditions,WindDirDegrees,DateUTC
12:02 AM,-7.6,-11.2,84,29.93,10.0,Calm,Calm,-,N/A,,Clear,0,2012-12-30 07:02:00
12:53 AM,-4.0,-9.9,76,30.21,10.0,WNW,4.6,-,N/A,,Clear,290,2012-12-30 07:53:00
1:53 AM,-4.0,-9.9,76,30.24,10.0,NW,4.6,-,N/A,,Clear,320,2012-12-30 08:53:00
2:16 AM,-4.0,-9.4,78,29.93,2.5,Calm,Calm,-,N/A,,Haze,0,2012-12-30 09:16:00
2:31 AM,-7.6,-13.0,77,29.93,7.0,SSW,3.5,-,N/A,,Partly Cloudy,210,2012-12-30 09:31:00
2:53 AM,-7.1,-11.9,79,30.25,10.0,Calm,Calm,-,N/A,,Clear,0,2012-12-30 09:53:00
3:53 AM,-6.0,-11.9,75,30.25,10.0,Calm,Calm,-,N/A,,Clear,0,2012-12-30 10:53:00
4:53 AM,-9.0,-14.1,79,30.29,10.0,West,6.9,-,N/A,,Clear,260,2012-12-30 11:53:00
5:53 AM,-6.0,-11.0,79,30.30,10.0,North,6.9,-,N/A,,Clear,350,2012-12-30 12:53:00
6:53 AM,-7.1,-11.9,79,30.31,10.0,Calm,Calm,-,N/A,,Clear,0,2012-12-30 13:53:00
7:53 AM,-9.9,-15.0,78,30.35,9.0,Calm,Calm,-,N/A,,Clear,0,2012-12-30 14:53:00
8:53 AM,-6.0,-11.0,79,30.35,10.0,WSW,6.9,-,N/A,,Clear,240,2012-12-30 15:53:00
9:31 AM,-0.4,-5.8,78,29.99,2.5,South,4.6,-,N/A,,Haze,190,2012-12-30 16:31:00
9:42 AM,-0.4,-5.8,78,29.99,1.8,West,5.8,-,N/A,,Haze,260,2012-12-30 16:42:00
9:48 AM,-0.4,-5.8,78,29.99,4.0,WSW,5.8,-,N/A,,Haze,250,2012-12-30 16:48:00
9:53 AM,1.0,-5.1,75,30.34,10.0,West,3.5,-,N/A,,Partly Cloudy,260,2012-12-30 16:53:00
10:53 AM,3.0,-2.0,80,30.32,10.0,Calm,Calm,-,N/A,,Clear,0,2012-12-30 17:53:00
11:53 AM,3.9,-2.9,73,30.32,10.0,Calm,Calm,-,N/A,,Clear,0,2012-12-30 18:53:00
12:53 PM,3.0,-2.9,76,30.31,9.0,NE,4.6,-,N/A,,Clear,50,2012-12-30 19:53:00
1:53 PM,1.9,-4.0,76,30.30,10.0,NE,5.8,-,N/A,,Clear,50,2012-12-30 20:53:00
2:53 PM,3.9,-2.9,73,30.31,10.0,Calm,Calm,-,N/A,,Clear,0,2012-12-30 21:53:00
3:53 PM,3.0,-2.9,76,30.31,10.0,Calm,Calm,-,N/A,,Clear,0,2012-12-30 22:53:00
4:53 PM,1.9,-4.0,76,30.33,10.0,Calm,Calm,-,N/A,,Clear,0,2012-12-30 23:53:00
5:53 PM,-2.9,-8.0,79,30.34,10.0,North,3.5,-,N/A,,Clear,350,2012-12-31 00:53:00
6:53 PM,-0.9,-6.0,79,30.34,10.0,Calm,Calm,-,N/A,,Clear,0,2012-12-31 01:53:00
7:53 PM,-2.9,-8.0,79,30.37,10.0,WSW,3.5,-,N/A,,Clear,240,2012-12-31 02:53:00
8:53 PM,-6.0,-11.0,79,30.36,2.5,WSW,6.9,-,N/A,,Haze,240,2012-12-31 03:53:00
9:02 PM,-5.8,-9.4,84,29.98,7.0,WSW,6.9,-,N/A,,Clear,240,2012-12-31 04:02:00
9:53 PM,-4.0,-9.0,79,30.32,10.0,WSW,6.9,-,N/A,,Clear,250,2012-12-31 04:53:00
10:53 PM,-2.9,-8.0,79,30.30,9.0,SW,3.5,-,N/A,,Clear,220,2012-12-31 05:53:00
11:03 PM,-2.2,-7.6,78,29.98,2.5,South,3.5,-,N/A,,Haze,180,2012-12-31 06:03:00
11:12 PM,-0.4,-7.6,72,29.98,1.5,Calm,Calm,-,N/A,,Haze,0,2012-12-31 06:12:00
11:17 PM,-0.4,-7.6,72,29.98,3.0,South,4.6,-,N/A,,Haze,180,2012-12-31 06:17:00
11:53 PM,-6.0,-9.9,83,30.31,9.0,NNW,4.6,-,N/A,,Clear,330,2012-12-31 06:53:00